#timestamp,LO_Frequency,Hit,StdDev 
1508871615.5,286047001.2,N
1508871635.3,286047000.0,N
1508871655.2,286046999.9,N
1508871675.0,286047001.2,N
1508871675.9,286047001.2,N
1508871695.8,286046999.7,N
1508871715.6,286046999.7,N
1508871735.4,286047000.0,N
1508871755.3,286047000.4,N
1508871775.1,286047000.1,N
1508871795.9,286047000.8,N
1508871815.7,286047001.1,N
1508871835.5,286047000.3,N
1508871855.4,286047002.3,N
1508871875.2,286046999.9,N
1508871895.0,286046998.4,N
1508871895.9,286046998.4,N
1508871915.8,286046998.8,N
1508871935.6,286046999.2,N
1508871955.5,286046999.3,N
1508871975.3,286046999.6,N
1508871995.1,286046998.2,N
1508872015.9,286047000.8,N
1508872035.7,286046998.2,N
1508872055.5,286046998.5,N
1508872075.4,286047001.0,N
1508872095.2,286046998.3,N
1508872115.1,286047000.6,N
1508872116.0,286047000.6,N
1508872135.8,286047000.2,N
1508872155.6,286047000.7,N
1508872175.5,286047001.0,N
1508872195.3,286046999.7,N
1508872215.2,286047001.8,N
1508872235.9,286047002.8,N
1508872255.7,286047000.9,N
1508872275.6,286047000.3,N
1508872295.4,286047000.5,N
1508872315.2,286047002.6,N
1508872335.1,286047002.1,N
1508872336.0,286047002.1,N
1508872355.8,286047002.0,N
1508872375.7,286047002.4,N
1508872395.5,286047000.1,N
1508872415.3,286047002.8,N
1508872435.2,286047000.4,N
1508872455.0,286046999.9,N
1508872455.9,286046999.9,N
1508872475.8,286047001.0,N
1508872495.6,286047000.9,N
1508872515.4,286046998.2,N
1508872535.3,286046998.3,N
1508872555.1,286047001.2,N
1508872575.8,286047000.4,N
1508872595.7,286047002.4,N
1508872615.5,286047000.0,N
1508872635.4,286046998.3,N
1508872655.2,286047001.0,N
1508872675.0,286047000.4,N
1508872675.9,286047000.4,N
1508872695.8,286047000.8,N
1508872715.6,286047000.4,N
1508872735.4,286047000.1,N
1508872755.3,286047001.7,N
1508872775.1,286047004.0,Y
1508872795.9,286047000.6,P
1508872815.7,286046999.1,P
1508872835.5,286046999.9,N
1508872855.4,286047002.7,Y
1508872875.2,286047000.4,P
1508872895.1,286047000.1,N
1508872896.0,286047000.1,N
1508872915.8,286046998.7,Y
1508872935.7,286047000.0,P
1508872955.5,286047001.0,P
1508872975.3,286047000.2,N
1508872995.2,286047000.2,N
1508873015.0,286047001.0,N
1508873015.9,286047001.0,N
1508873035.8,286047001.0,N
1508873055.6,286047000.3,N
1508873075.4,286046999.8,N
1508873095.3,286047000.5,N
1508873115.1,286047002.4,Y
1508873135.8,286047000.7,P
1508873155.7,286046998.8,P
1508873175.5,286046999.3,N
1508873195.4,286046998.7,N
1508873215.2,286046999.1,N
1508873235.0,286046999.5,N
1508873235.9,286046999.5,N
1508873255.8,286046997.8,Y
1508873275.6,286046996.6,P
1508873295.5,286046999.3,N
1508873315.3,286046998.8,N
1508873335.1,286046998.8,N
1508873355.9,286046999.6,N
1508873375.7,286046996.8,Y
1508873395.5,286046999.5,P
1508873415.4,286046998.7,P
1508873435.2,286046998.5,P
1508873455.1,286047000.0,N
1508873456.0,286047000.0,N
1508873475.8,286047000.8,N
1508873495.6,286047000.9,N
1508873515.5,286046998.3,N
1508873535.3,286046998.9,N
1508873555.2,286047001.1,N
1508873575.9,286046998.6,N
1508873595.7,286046996.7,Y
1508873615.6,286046996.5,P
1508873635.4,286046999.4,N
1508873655.2,286046996.9,N
1508873675.1,286046996.6,N
1508873676.0,286046996.6,N
1508873695.8,286046997.4,N
1508873715.7,286046997.5,N
1508873735.5,286046994.9,Y
1508873755.3,286046998.5,P
1508873775.2,286046999.0,N
1508873795.0,286046998.4,N
1508873795.9,286046998.4,Y
1508873815.8,286046999.7,P
1508873835.6,286047000.9,N
1508873855.4,286047002.6,N
1508873875.3,286047000.1,N
1508873895.1,286047002.8,N
1508873915.9,286047002.8,N
1508873935.7,286046999.9,N
1508873955.5,286047001.0,N
1508873975.4,286047000.8,N
1508873995.2,286046996.6,N
1508874015.0,286046996.5,N
1508874016.0,286046996.5,N
1508874035.8,286046996.5,N
1508874055.6,286046999.5,N
1508874075.5,286046998.6,N
1508874095.3,286046999.4,N
1508874115.1,286046999.4,N
1508874135.9,286046998.7,N
1508874155.7,286046999.6,N
1508874175.6,286046998.8,N
1508874195.4,286046998.9,N
1508874215.2,286046998.2,N
1508874235.1,286046998.4,N
1508874236.0,286046998.4,N
1508874255.8,286046999.2,N
1508874275.7,286046996.8,N
1508874295.5,286046999.6,N
1508874315.3,286046995.0,N
1508874335.2,286046996.7,N
1508874355.0,286046995.1,N
1508874355.9,286046995.1,N
1508874375.8,286046997.6,N
1508874395.6,286046995.7,N
1508874415.4,286046997.8,N
1508874435.3,286046997.4,N
1508874455.1,286046997.9,N
1508874475.8,286046995.4,N
1508874495.7,286046995.6,N
1508874515.5,286046995.4,N
1508874535.4,286046993.3,Y
1508874555.2,286046997.0,P
1508874575.0,286046999.4,N
1508874575.9,286046999.4,N
1508874595.8,286046998.1,N
1508874615.6,286046998.9,N
1508874635.4,286046997.1,Y
1508874655.3,286046999.5,P
1508874675.1,286046997.2,P
1508874695.9,286046997.2,P
1508874715.7,286046999.3,N
1508874735.5,286046996.7,Y
1508874755.4,286046998.2,P
1508874775.2,286046998.3,P
1508874795.1,286046999.3,P
1508874796.0,286046999.3,N
1508874815.8,286046998.5,Y
1508874835.6,286046998.4,P
1508874855.5,286046999.7,N
1508874875.3,286047001.9,P
1508874895.1,286047002.2,N
1508874915.9,286047001.6,N
1508874935.7,286047004.3,N
1508874955.6,286047002.2,N
1508874975.4,286047004.0,N
1508874995.2,286047001.6,N
1508875015.1,286047002.7,N
1508875016.0,286047002.7,N
1508875035.8,286047000.0,N
1508875055.7,286047000.2,N
1508875075.5,286047001.9,N
1508875095.3,286047000.3,N
1508875115.2,286047002.7,N
1508875135.9,286047004.1,N
1508875155.7,286047004.2,N
1508875175.6,286047004.4,N
1508875195.4,286047001.7,N
